Weather History for KAUG - February, 2014

Change the Weather History Date:

Wednesday, February 19, 2014

  Actual Average Record
Temperature  
Mean Temperature 24 °F 24 °F  
Max Temperature 32 °F 33 °F 48 °F (1997)
Min Temperature 15 °F 16 °F 1 °F (2006)
Degree Days  
Heating Degree Days 42 41  
Month to date heating degree days 818  
Since 1 July heating degree days 4989  
Cooling Degree Days 0 0  
Month to date cooling degree days 0  
Year to date cooling degree days 0  
Moisture  
Dew Point 24 °F    
Average Humidity 92    
Maximum Humidity 100    
Minimum Humidity 75    
Precipitation  
Precipitation 0.09 in 0.09 in 0.46 in (2013)
Month to date precipitation 1.61  
Year to date precipitation 4.22  
Sea Level Pressure  
Sea Level Pressure 29.91 in    
Wind  
Wind Speed 6 mph (SSE)    
Max Wind Speed 13 mph    
Max Gust Speed -    
Visibility 5 miles    
Events Fog , Rain , Snow    
T = Trace of Precipitation, MM = Missing Value Source: NWS Daily Summary

Daily Weather History Graph

Daily Weather History Graph

Search for Another Location

Airport or City:

Trip Planner

Search our weather history database for the weather conditions in past years. The results will help you decide how hot, cold, wet, or windy it might be!

Date:

Astronomy

Feb. 19, 2014 Rise Set
Actual Time 6:32 AM EST 5:13 PM EST
Civil Twilight 6:03 AM EST 5:43 PM EST
Nautical Twilight 5:29 AM EST 6:17 PM EST
Astronomical Twilight 4:55 AM EST 6:50 PM EST
Moon 10:16 PM EST (2/19) 8:25 AM EST (2/19)
Length of Visible Light 11h 40m
Length of Day
10h 41m
Waning Gibbous, 80% of the Moon is Illuminated
Feb 19
Waning Gibbous
Feb 22
Last Quarter
Mar 1
New
Mar 8
First Quarter
Mar 16
Full

Hourly Weather History & Observations

Time (EST) Temp. Windchill Dew Point Humidity Pressure Visibility Wind Dir Wind Speed Gust Speed Precip Events Conditions
12:37 AM 21.9 °F 9.8 °F 19.0 °F 89% 29.95 in 1.8 mi NNW 12.7 mph - N/A   Overcast
12:53 AM 21.9 °F 10.4 °F 19.9 °F 92% 29.98 in 2.0 mi NNW 11.5 mph - N/A   Overcast
1:15 AM 21.9 °F 11.7 °F 19.9 °F 92% 29.97 in 4.0 mi NW 9.2 mph - N/A   Overcast
1:53 AM 19.0 °F 8.2 °F 18.0 °F 96% 29.98 in 10.0 mi North 9.2 mph - 0.00 in   Partly Cloudy
2:53 AM 19.9 °F 11.1 °F 18.0 °F 92% 30.02 in 10.0 mi NW 6.9 mph - N/A   Clear
3:53 AM 19.0 °F 13.9 °F 18.0 °F 96% 30.01 in 10.0 mi NNW 3.5 mph - N/A   Clear
4:53 AM 19.0 °F 12.3 °F 17.1 °F 92% 30.04 in 10.0 mi West 4.6 mph - N/A   Clear
5:17 AM 18.0 °F - 15.1 °F 88% 30.02 in 1.2 mi Calm Calm - N/A   Clear
5:19 AM 18.0 °F - 15.1 °F 88% 30.03 in 0.8 mi Calm Calm - 0.01 in Snow Light Snow
5:27 AM 17.1 °F - 15.1 °F 92% 30.03 in 1.8 mi Calm Calm - 0.01 in   Partly Cloudy
5:34 AM 18.0 °F - 14.0 °F 84% 30.03 in 10.0 mi Calm Calm - 0.01 in   Clear
5:53 AM 19.0 °F - 16.0 °F 88% 30.06 in 10.0 mi Calm Calm - 0.01 in   Clear
6:53 AM 15.1 °F - 12.9 °F 91% 30.04 in 9.0 mi Calm Calm - N/A   Clear
7:53 AM 17.1 °F 8.7 °F 16.0 °F 96% 30.06 in 10.0 mi SSW 5.8 mph - N/A   Clear
8:26 AM 19.0 °F - 18.0 °F 96% 30.03 in 1.0 mi Calm Calm - N/A   Clear
8:30 AM 19.0 °F - 18.0 °F 96% 30.03 in 5.0 mi Calm Calm - N/A   Clear
8:38 AM 19.0 °F - 18.0 °F 96% 30.03 in 0.5 mi Calm Calm - N/A Fog Light Freezing Fog
8:49 AM 19.4 °F - 17.6 °F 93% 30.03 in 3.0 mi Calm Calm - 0.00 in   Clear
8:53 AM 19.0 °F - 18.0 °F 96% 30.05 in 8.0 mi Calm Calm - 0.00 in   Clear
9:53 AM 24.1 °F 19.7 °F 19.9 °F 84% 30.04 in 10.0 mi SSE 3.5 mph - N/A   Clear
10:53 AM 27.0 °F 19.5 °F 21.9 °F 81% 30.03 in 10.0 mi SE 6.9 mph - N/A   Clear
11:53 AM 30.0 °F 26.5 °F 24.1 °F 79% 29.99 in 10.0 mi South 3.5 mph - N/A   Clear
12:53 PM 32.0 °F 24.8 °F 25.0 °F 75% 29.97 in 10.0 mi South 8.1 mph - N/A   Partly Cloudy
1:29 PM 32.0 °F 24.8 °F 25.0 °F 75% 29.95 in 10.0 mi SSW 8.1 mph - N/A   Mostly Cloudy
1:53 PM 30.9 °F 24.3 °F 25.0 °F 79% 29.93 in 10.0 mi SSE 6.9 mph - N/A   Overcast
2:24 PM 30.9 °F 25.2 °F 26.1 °F 82% 29.90 in 10.0 mi South 5.8 mph - N/A   Overcast
2:53 PM 30.9 °F 27.5 °F 27.0 °F 85% 29.90 in 10.0 mi Variable 3.5 mph - N/A   Overcast
3:17 PM 30.9 °F 27.5 °F 27.0 °F 85% 29.88 in 10.0 mi SSE 3.5 mph - N/A   Overcast
3:53 PM 30.9 °F 25.2 °F 28.0 °F 89% 29.88 in 2.0 mi ESE 5.8 mph - 0.00 in Snow Light Snow
4:00 PM 30.9 °F 24.3 °F 28.0 °F 89% 29.86 in 1.0 mi SE 6.9 mph - 0.00 in Snow Light Snow
4:13 PM 30.9 °F 24.3 °F 28.9 °F 92% 29.85 in 0.8 mi SE 6.9 mph - 0.00 in Snow Light Snow
4:25 PM 30.9 °F 23.5 °F 28.9 °F 92% 29.85 in 0.5 mi SE 8.1 mph - 0.01 in Fog , Snow Snow
4:34 PM 30.9 °F 25.2 °F 30.0 °F 96% 29.86 in 0.5 mi SE 5.8 mph - 0.02 in Fog , Snow Snow
4:41 PM 30.9 °F 24.3 °F 30.0 °F 96% 29.85 in 0.2 mi SE 6.9 mph - 0.03 in Fog , Snow Snow
4:51 PM 30.2 °F 23.4 °F 30.2 °F 100% 29.84 in 0.8 mi SE 6.9 mph - 0.03 in Snow Light Snow
4:53 PM 30.9 °F 25.2 °F 30.0 °F 96% 29.86 in 0.8 mi SE 5.8 mph - 0.03 in Snow Light Snow
5:04 PM 30.9 °F 24.3 °F 30.0 °F 96% 29.83 in 1.2 mi SE 6.9 mph - 0.01 in Snow Light Snow
5:53 PM 30.9 °F 25.2 °F 30.9 °F 100% 29.83 in 1.0 mi SE 5.8 mph - 0.03 in Snow Light Snow
6:29 PM 32.0 °F 25.6 °F 30.9 °F 96% 29.79 in 2.0 mi SE 6.9 mph - 0.01 in Snow Light Snow
6:53 PM 32.0 °F 25.6 °F 30.9 °F 96% 29.79 in 3.0 mi ESE 6.9 mph - 0.01 in Snow Light Snow
7:53 PM 32.0 °F - 30.9 °F 96% 29.77 in 4.0 mi Calm Calm - 0.00 in Snow Light Snow
8:53 PM 32.0 °F 28.7 °F 30.9 °F 96% 29.76 in 4.0 mi North 3.5 mph - 0.01 in   Overcast
9:08 PM 32.0 °F 28.7 °F 30.9 °F 96% 29.75 in 2.0 mi NNW 3.5 mph - N/A   Overcast
9:34 PM 32.0 °F 26.4 °F 30.9 °F 96% 29.74 in 1.2 mi NNW 5.8 mph - N/A   Overcast
9:53 PM 30.9 °F 22.2 °F 30.9 °F 100% 29.76 in 1.8 mi NNW 10.4 mph - N/A   Overcast
9:58 PM 30.9 °F 22.8 °F 30.9 °F 100% 29.74 in 3.0 mi NNW 9.2 mph - N/A   Overcast
10:08 PM 30.9 °F 23.5 °F 30.0 °F 96% 29.74 in 3.0 mi NNW 8.1 mph - 0.00 in Rain Light Freezing Rain
10:11 PM 30.9 °F 22.8 °F 30.0 °F 96% 29.74 in 2.5 mi NNW 9.2 mph - 0.00 in Snow Light Snow
10:53 PM 30.0 °F 22.4 °F 30.0 °F 100% 29.75 in 3.0 mi NW 8.1 mph - 0.00 in Snow Light Snow
11:13 PM 30.0 °F 22.4 °F 28.9 °F 96% 29.74 in 5.0 mi NNW 8.1 mph - 0.00 in   Overcast
11:53 PM 30.0 °F 24.1 °F 28.9 °F 96% 29.77 in 6.0 mi NW 5.8 mph - 0.00 in   Overcast